Satellite-Ground Cal/Val Region Overpasses Predictions

Prediction of Satellite NPP Overpassing Cal/Val Region: PacNW

Region Location: (Latitude: 10.00, Longitude: 139.50) to (Latitude: 22.70, Longitude: 165.60).

Table of predicted overpasses for the next 14.0 days since TLE Epoch: 4/17/2021
Interval Starting Time Starting Location Ending Time Ending Location
1 04/17/2021 02:38:51 ( 10.81, 159.77) 04/17/2021 02:42:12 ( 22.67, 156.95)
2 04/17/2021 15:10:30 ( 22.65, 157.19) 04/17/2021 15:14:05 ( 10.02, 154.18)
3 04/18/2021 02:19:35 ( 10.04, 164.71) 04/18/2021 02:23:10 ( 22.66, 161.71)
4 04/18/2021 14:51:28 ( 22.65, 161.95) 04/18/2021 14:55:03 ( 10.03, 158.94)
5 04/19/2021 03:42:03 ( 10.04, 144.10) 04/19/2021 03:45:38 ( 22.66, 141.09)
6 04/19/2021 14:33:43 ( 18.08, 165.59) 04/19/2021 14:36:00 ( 10.04, 163.71)
7 04/19/2021 16:13:55 ( 22.65, 141.33) 04/19/2021 16:16:04 ( 15.08, 139.50)
8 04/20/2021 03:23:00 ( 10.03, 148.86) 04/20/2021 03:26:35 ( 22.66, 145.86)
9 04/20/2021 15:54:53 ( 22.66, 146.10) 04/20/2021 15:58:28 ( 10.04, 143.09)
10 04/21/2021 03:03:58 ( 10.03, 153.62) 04/21/2021 03:07:33 ( 22.65, 150.62)
11 04/21/2021 15:35:50 ( 22.66, 150.86) 04/21/2021 15:39:25 ( 10.04, 147.85)
12 04/22/2021 02:44:55 ( 10.02, 158.38) 04/22/2021 02:48:30 ( 22.64, 155.38)
13 04/22/2021 15:16:48 ( 22.67, 155.62) 04/22/2021 15:20:23 ( 10.05, 152.62)
14 04/23/2021 02:25:53 ( 10.02, 163.14) 04/23/2021 02:29:29 ( 22.70, 160.13)
15 04/23/2021 14:57:45 ( 22.68, 160.38) 04/23/2021 15:01:20 ( 10.05, 157.38)
16 04/24/2021 02:09:37 ( 19.82, 165.60) 04/24/2021 02:10:26 ( 22.69, 164.89)
17 04/24/2021 03:48:20 ( 10.02, 142.53) 04/24/2021 03:51:55 ( 22.64, 139.53)
18 04/24/2021 14:38:43 ( 22.68, 165.14) 04/24/2021 14:42:19 ( 10.00, 162.12)
19 04/24/2021 16:20:13 ( 22.67, 139.77) 04/24/2021 16:20:31 ( 21.62, 139.50)
20 04/25/2021 03:29:18 ( 10.01, 147.29) 04/25/2021 03:32:54 ( 22.70, 144.27)
21 04/25/2021 16:01:10 ( 22.68, 144.53) 04/25/2021 16:04:45 ( 10.06, 141.52)
22 04/26/2021 03:10:15 ( 10.01, 152.05) 04/26/2021 03:13:51 ( 22.69, 149.03)
23 04/26/2021 15:42:08 ( 22.68, 149.29) 04/26/2021 15:45:44 ( 10.00, 146.27)
24 04/27/2021 02:51:13 ( 10.01, 156.81) 04/27/2021 02:54:49 ( 22.69, 153.79)
25 04/27/2021 15:23:06 ( 22.68, 154.05) 04/27/2021 15:26:42 ( 10.01, 151.03)
26 04/28/2021 02:32:10 ( 10.00, 161.57) 04/28/2021 02:35:46 ( 22.69, 158.56)
27 04/28/2021 15:04:03 ( 22.69, 158.81) 04/28/2021 15:07:39 ( 10.01, 155.79)
28 04/29/2021 02:14:03 ( 13.23, 165.59) 04/29/2021 02:16:44 ( 22.68, 163.32)
29 04/29/2021 03:54:38 ( 10.01, 140.96) 04/29/2021 03:56:24 ( 16.24, 139.51)
30 04/29/2021 14:45:01 ( 22.69, 163.57) 04/29/2021 14:48:37 ( 10.01, 160.56)
31 04/30/2021 03:35:35 ( 10.01, 145.72) 04/30/2021 03:39:11 ( 22.69, 142.70)
32 04/30/2021 14:29:13 ( 11.25, 165.60) 04/30/2021 14:29:34 ( 10.02, 165.32)
